TimeEST,TemperatureF,Dew PointF,Humidity,Sea Level PressureIn,VisibilityMPH,Wind Direction,Wind SpeedMPH,Gust SpeedMPH,PrecipitationIn,Events,Conditions,WindDirDegrees,DateUTC
12:15 AM,44.6,43.0,94,29.97,10.0,SW,4.6,-,N/A,,Clear,230,2013-02-20 05:15:00
12:35 AM,43.9,42.8,96,29.98,7.0,SW,5.8,-,N/A,,Clear,230,2013-02-20 05:35:00
12:55 AM,44.1,43.0,96,29.98,10.0,SW,4.6,-,N/A,,Clear,230,2013-02-20 05:55:00
1:15 AM,43.9,43.0,97,29.98,10.0,WSW,5.8,-,N/A,,Clear,240,2013-02-20 06:15:00
1:35 AM,43.9,43.0,97,29.99,7.0,WSW,5.8,-,N/A,,Clear,240,2013-02-20 06:35:00
1:55 AM,43.2,42.4,97,29.99,5.0,WSW,5.8,-,N/A,,Clear,250,2013-02-20 06:55:00
2:15 AM,43.0,42.6,99,30.00,5.0,WSW,5.8,-,N/A,,Clear,250,2013-02-20 07:15:00
2:35 AM,42.8,42.3,98,30.00,7.0,West,5.8,-,N/A,,Clear,260,2013-02-20 07:35:00
2:55 AM,42.3,40.8,95,30.00,10.0,West,4.6,-,N/A,,Clear,280,2013-02-20 07:55:00
3:15 AM,41.9,37.6,85,30.00,10.0,WNW,5.8,-,N/A,,Clear,300,2013-02-20 08:15:00
3:35 AM,41.0,36.7,85,30.00,10.0,West,3.5,-,N/A,,Clear,280,2013-02-20 08:35:00
3:55 AM,39.9,36.3,87,30.01,10.0,West,3.5,-,N/A,,Clear,280,2013-02-20 08:55:00
4:15 AM,39.4,34.9,84,30.02,10.0,Calm,Calm,-,N/A,,Clear,0,2013-02-20 09:15:00
4:35 AM,38.7,34.0,83,30.03,10.0,Calm,Calm,-,N/A,,Clear,0,2013-02-20 09:35:00
4:55 AM,36.3,33.4,89,30.04,10.0,Calm,Calm,-,N/A,,Clear,0,2013-02-20 09:55:00
5:35 AM,36.5,31.8,83,30.05,10.0,West,3.5,-,N/A,,Clear,270,2013-02-20 10:35:00
6:15 AM,35.8,30.2,80,30.07,10.0,WNW,3.5,-,N/A,,Clear,290,2013-02-20 11:15:00
6:35 AM,35.2,30.0,81,30.07,10.0,Calm,Calm,-,N/A,,Clear,0,2013-02-20 11:35:00
6:55 AM,35.2,28.4,76,30.08,10.0,West,4.6,-,N/A,,Clear,280,2013-02-20 11:55:00
7:15 AM,35.1,28.8,78,30.09,10.0,Calm,Calm,-,N/A,,Clear,0,2013-02-20 12:15:00
7:35 AM,33.4,28.9,84,30.10,10.0,Calm,Calm,-,N/A,,Clear,0,2013-02-20 12:35:00
7:55 AM,34.3,31.6,90,30.11,10.0,Calm,Calm,-,N/A,,Clear,0,2013-02-20 12:55:00
8:15 AM,38.5,28.9,69,30.11,10.0,NW,3.5,-,N/A,,Clear,320,2013-02-20 13:15:00
8:55 AM,41.5,24.4,51,30.12,10.0,NNW,8.1,-,N/A,,Clear,330,2013-02-20 13:55:00
9:15 AM,43.0,20.1,40,30.11,10.0,NW,9.2,-,N/A,,Clear,320,2013-02-20 14:15:00
9:35 AM,44.1,18.3,36,30.11,10.0,NW,8.1,-,N/A,,Clear,320,2013-02-20 14:35:00
9:55 AM,45.7,16.2,31,30.11,10.0,NNW,9.2,-,N/A,,Clear,330,2013-02-20 14:55:00
10:15 AM,46.4,13.1,26,30.11,10.0,WNW,11.5,17.3,N/A,,Clear,300,2013-02-20 15:15:00
10:35 AM,47.3,13.3,25,30.12,10.0,WNW,10.4,17.3,N/A,,Clear,300,2013-02-20 15:35:00
10:55 AM,47.7,9.5,21,30.12,10.0,NW,13.8,17.3,N/A,,Clear,310,2013-02-20 15:55:00
11:15 AM,49.3,12.2,23,30.11,10.0,WNW,11.5,17.3,N/A,,Clear,300,2013-02-20 16:15:00
11:35 AM,49.6,10.9,21,30.11,10.0,West,11.5,-,N/A,,Clear,270,2013-02-20 16:35:00
11:55 AM,49.6,12.0,22,30.10,10.0,WNW,6.9,-,N/A,,Clear,290,2013-02-20 16:55:00
12:15 PM,50.2,13.1,23,30.09,10.0,West,9.2,-,N/A,,Clear,280,2013-02-20 17:15:00
12:35 PM,50.2,11.1,21,30.08,10.0,NW,9.2,18.4,N/A,,Clear,310,2013-02-20 17:35:00
12:55 PM,50.9,10.6,20,30.07,10.0,West,6.9,-,N/A,,Clear,260,2013-02-20 17:55:00
1:15 PM,52.2,13.6,22,30.06,10.0,WNW,10.4,17.3,N/A,,Clear,290,2013-02-20 18:15:00
1:35 PM,52.2,12.2,20,30.05,10.0,West,10.4,-,N/A,,Clear,270,2013-02-20 18:35:00
2:15 PM,52.9,13.3,21,30.04,10.0,West,11.5,17.3,N/A,,Clear,270,2013-02-20 19:15:00
2:35 PM,53.6,13.8,21,30.04,10.0,West,6.9,17.3,N/A,,Clear,280,2013-02-20 19:35:00
2:55 PM,54.0,12.9,20,30.03,10.0,West,9.2,-,N/A,,Clear,280,2013-02-20 19:55:00
3:15 PM,53.2,13.5,21,30.03,10.0,SW,5.8,-,N/A,,Clear,220,2013-02-20 20:15:00
3:55 PM,54.3,15.4,22,30.03,10.0,West,8.1,-,N/A,,Clear,280,2013-02-20 20:55:00
4:15 PM,54.0,16.3,23,30.03,10.0,West,9.2,-,N/A,,Clear,280,2013-02-20 21:15:00
4:35 PM,54.1,16.9,23,30.03,10.0,West,8.1,-,N/A,,Clear,260,2013-02-20 21:35:00
4:55 PM,53.2,15.6,23,30.04,10.0,WSW,6.9,-,N/A,,Clear,250,2013-02-20 21:55:00
5:15 PM,51.8,17.1,25,30.05,10.0,WSW,4.6,-,N/A,,Clear,250,2013-02-20 22:15:00
5:35 PM,49.8,18.9,29,30.05,10.0,WSW,5.8,-,N/A,,Clear,250,2013-02-20 22:35:00
5:55 PM,44.8,27.5,51,30.07,10.0,Calm,Calm,-,N/A,,Clear,0,2013-02-20 22:55:00
6:15 PM,42.4,30.4,62,30.07,10.0,Calm,Calm,-,N/A,,Clear,0,2013-02-20 23:15:00
6:35 PM,40.6,30.2,66,30.08,10.0,Calm,Calm,-,N/A,,Clear,0,2013-02-20 23:35:00
6:55 PM,39.2,30.0,70,30.08,10.0,Calm,Calm,-,N/A,,Clear,0,2013-02-20 23:55:00
7:15 PM,37.4,29.7,74,30.09,10.0,Calm,Calm,-,N/A,,Clear,0,2013-02-21 00:15:00
7:35 PM,36.0,28.8,75,30.10,10.0,Calm,Calm,-,N/A,,Clear,0,2013-02-21 00:35:00
7:55 PM,35.2,28.4,76,30.10,10.0,Calm,Calm,-,N/A,,Clear,0,2013-02-21 00:55:00
8:35 PM,34.5,27.0,74,30.10,10.0,Calm,Calm,-,N/A,,Clear,0,2013-02-21 01:35:00
8:55 PM,33.8,27.3,77,30.11,10.0,Calm,Calm,-,N/A,,Clear,0,2013-02-21 01:55:00
9:15 PM,33.1,27.5,80,30.11,10.0,Calm,Calm,-,N/A,,Clear,0,2013-02-21 02:15:00
9:35 PM,32.2,26.8,80,30.12,10.0,Calm,Calm,-,N/A,,Clear,0,2013-02-21 02:35:00
9:55 PM,31.8,25.9,79,30.13,10.0,Calm,Calm,-,N/A,,Clear,0,2013-02-21 02:55:00
10:35 PM,30.9,25.7,81,30.12,10.0,Calm,Calm,-,N/A,,Clear,0,2013-02-21 03:35:00
10:55 PM,30.2,26.1,85,30.11,10.0,Calm,Calm,-,N/A,,Clear,0,2013-02-21 03:55:00
11:15 PM,30.2,26.2,85,30.11,10.0,Calm,Calm,-,N/A,,Clear,0,2013-02-21 04:15:00
11:35 PM,29.1,26.2,89,30.11,10.0,Calm,Calm,-,N/A,,Clear,0,2013-02-21 04:35:00
11:55 PM,30.2,27.7,90,30.12,10.0,Calm,Calm,-,N/A,,Clear,0,2013-02-21 04:55:00